Simultaneous Nadir Overpasses (SNOs) Predictions

Prediction of SNOs between GOES-14 and AQUA Satellite Orbit:

Table of predicted SNOs for the next 14.0 days since TLE Epoch: 10/11/2019
Index Date Time (GOES-14) GOES-14 Lat,Lon AQUA Lat,Lon Distance(km) Time Diff (sec)
1 10/12/2019 08:47:47 0.22,-104.24 0.92,-107.63 385.36 80
2 10/14/2019 08:35:35 0.22,-104.23 0.33,-104.67 49.77 80
3 10/16/2019 08:20:44 0.23,-104.22 -0.31,-101.71 285.67 80
4 10/16/2019 20:42:08 -0.21,-104.17 -0.82,-106.90 311.11 80
5 10/18/2019 20:32:37 -0.21,-104.17 -0.16,-103.95 24.40 80
6 10/20/2019 20:20:25 -0.21,-104.16 0.44,-100.99 359.73 80
7 10/21/2019 08:41:41 0.19,-104.23 0.62,-106.15 219.55 80
8 10/23/2019 08:26:50 0.19,-104.21 -0.04,-103.20 114.93 80
9 10/23/2019 20:48:14 -0.16,-104.12 -1.07,-108.39 486.34 80
10 10/25/2019 08:14:38 0.19,-104.20 -0.64,-100.24 449.75 80




NCC Satellite Simultaneous Nadir Overpasses (SNOs) Prediction Service
